Simultaneous Nadir Overpasses (SNOs) Predictions

Prediction of SNOs between AQUA and NOAA-19 Satellite Orbit:

Table of predicted SNOs for the next 14.0 days since TLE Epoch: 3/1/2025
Index Date (AQUA) Time (AQUA) Lat,Lon (AQUA) SZA (AQUA ) Date (NOAA-19) Time (NOAA-19) Lat,Lon (NOAA-19) SZA (NOAA-19 ) Distance(km) Time Diff (sec)
1 03/01/2025 22:28:23 -75.63, 26.14 97.24 03/01/2025 22:27:22 -75.63, 26.23 97.24 2.41 61
2 03/01/2025 23:17:43 75.66,-166.27 82.78 03/01/2025 23:18:18 75.69,-166.32 82.81 3.34 35
3 03/04/2025 01:25:52 -75.66, -18.24 98.03 03/04/2025 01:25:44 -75.64, -18.30 98.04 2.46 8
4 03/06/2025 03:34:00 75.64, 129.83 81.15 03/06/2025 03:33:08 75.61, 129.80 81.12 3.47 52
5 03/06/2025 04:23:19 -75.67, -62.59 98.84 03/06/2025 04:24:05 -75.68, -62.71 98.82 3.58 46
6 03/08/2025 06:31:25 75.65, 85.50 80.33 03/08/2025 06:31:29 75.66, 85.42 80.35 2.71 4
7 03/10/2025 08:39:29 -75.65,-126.47 100.48 03/10/2025 08:38:52 -75.64,-126.44 100.49 1.33 37
8 03/10/2025 09:28:49 75.70, 41.06 79.55 03/10/2025 09:29:50 75.70, 41.00 79.56 1.74 61
9 03/12/2025 10:47:31 75.61, 21.68 78.66 03/12/2025 10:46:18 75.55, 21.45 78.60 9.38 73
10 03/12/2025 11:36:51 -75.69,-170.87 101.28 03/12/2025 11:37:12 -75.69,-170.82 101.28 1.31 21
11 03/14/2025 13:44:51 75.64, -22.69 77.86 03/14/2025 13:44:37 75.65, -22.75 77.87 1.92 14



Historial Predications of SNOs between AQUA and NOAA-19
